Location: Bédeille
(43.0872°N, 1.1041°E)
Time: 19:52:38
(UTC+00:00)

Cosmos 2227 - Pass Details

Date: 03 February 2023
Orbit: 833 x 862 km, 71.0° (Epoch: 22 March)

Event Time Altitude Azimuth Distance (km) Brightness Sun altitude
Rises 17:54:32 0° 333° (NNW) 3,449 7.5 -8.5°
Reaches altitude 10° 17:57:00 10° 333° (NNW) 2,509 6.8 -8.9°
Maximum altitude 18:02:46 77° 248° (WSW) 888 4.5 -10.0°
Drops below altitude 10° 18:08:30 10° 163° (SSE) 2,489 6.6 -11.0°
Sets 18:10:56 0° 162° (SSE) 3,419 7.3 -11.4°
